Location: Ciula Mare
(45.6000°N, 22.8167°E)
Time: 12:12:04
(UTC+00:00)

ATLAS 2AS CENTAUR R/B - Pass Details

Date: 03 February 2023
Orbit: 986 x 1226 km, 63.7° (Epoch: 31 January)

Event Time Altitude Azimuth Distance (km) Brightness Sun altitude
Rises 16:34:30 0° 321° (NW) 3,975 6.1 -10.3°
Reaches altitude 10° 16:37:16 10° 323° (NW) 2,977 5.4 -10.8°
Maximum altitude 16:44:19 84° 52° (NE) 1,069 2.7 -12.0°
Drops below altitude 10° 16:50:57 10° 141° (SE) 2,800 4.6 -13.1°
Sets 16:53:28 0° 142° (SE) 3,725 5.3 -13.6°
